{"data":{"norad_id":63106,"intl_designator":"2025-039C","name":"STARLINK-11584 [DTC]","alt_names":[],"object_type":"PAYLOAD","status":"ACTIVE","operator":null,"country":"US","launch_date":"2025-02-27","launch_site_code":"AFETR","launch_vehicle":null,"mission":null,"orbit_class":"UNKNOWN","rcs_meters":null,"size_class":null,"mass_kg":null,"dimensions":null,"purposes":["comms"],"wikipedia_slug":null,"has_3d_model":false,"image_url":null,"decayed_at":null,"tle_current":{"epoch":"2026-05-25T00:05:31.934112Z","epoch_age_seconds":81633,"freshness":"FRESH","line1":"1 63106U 25039C   26145.00384183  .00227976  00000+0  17156-2 0  9994","line2":"2 63106  43.0007 137.2120 0004643 293.7269  66.3112 15.71057805 71616","mean_motion":15.71057805,"eccentricity":0.0004643,"inclination_deg":43.0007,"raan_deg":137.212,"arg_perigee_deg":293.7269,"mean_anomaly_deg":66.3112,"bstar":0.0017156,"rev_number":7161,"period_min":91.657989630751,"perigee_km":352.74600537723,"apogee_km":358.99920669739,"semimajor_km":6734.0096060373,"source":"CELESTRAK","updated_at":"2026-05-25T13:38:19.882313Z"}}}